ONEWEB-0241 (48773 NORAD) Tracking and Keplerian Element Data

This shows tracking and keplerian element data for the satellite.

Feedback or suggestion? Click here.




ElementValue
Catalog48773
NameONEWEB-0241
Epoch Orbit354
Epoch Day214.91667824
Epoch Year2021
RAAN254.6981
Inclination87.5954
Eccentricity0.0008894
Argument of Perigee39.7851
Mean Anonmoly155.3928
Mean Motion14.36092955
Decay Rate-0.01343693
L11 48773U 21045G 21214.91667824 -.01343693 00000-0 -49804+0 0 9999
L22 48773 87.5954 254.6981 0008894 39.7851 155.3928 14.36092955 3545

Live tracking and technical data element details for ONEWEB-0241 (NORAD 48773). ONEWEB-0241 can be tracked NOW for your location showing map with azimuth and elevation plus other details from your city location.

Track the satellite on the map from your city or location and see movement details for azimuth, elevation, latitude, longitude, range, height, and movement on the map or in text.







IsCatalogInMostPopularTable: catalog: 48773, numindb: 15
Update: records affected: 1



GetName: 48773 ONEWEB-0241

Hit Count: updated at: Tue, 03 Aug 2021 20:27:08 GMT